Location: *
(13.0000°N, 151.6000°E)
Time: 04:48:09
(UTC+00:00)

CZ-4B R/B - Pass Details

Date: 01 April 2020
Orbit: 809 x 881 km, 99.1° (Epoch: 24 May)

Event Time Altitude Azimuth Distance (km) Brightness Sun altitude
Rises 19:06:02 0° 21° (NNE) 3,419 6.8 -11.3°
Reaches altitude 10° 19:08:27 10° 26° (NNE) 2,493 6.1 -10.7°
Maximum altitude 19:13:51 53° 102° (ESE) 1,054 4.2 -9.4°
Drops below altitude 10° 19:19:19 10° 178° (S) 2,524 5.6 -8.1°
Sets 19:21:46 0° 183° (S) 3,466 6.3 -7.5°
